Temperature
16 17 17 18 14 11 12 13 12 12 12 12 12 11 10 10 11 11 11 11 11 12 12 12 12 12 12 13 13 13 13 13 14 14 14 14 14 14 14 14 14 14 14 14 15 15 15 15 14
16 17 17 17 12 12 13 12 12 11 12 12 11 11 10 9 9 10 10 11 11 11 12 12 12 12 12 12 13 13 13 13 13 13 14 14 14 14 14 14 14 14 14 14 14 14 14 14 14
16 17 17 10 11 12 13 12 11 11 11 11 10 9 9 8 9 9 10 10 11 11 12 12 12 12 12 12 12 13 13 13 13 13 13 13 13 13 14 14 14 14 14 14 14 14 14 14 14
17 17 14 10 11 11 11 11 10 10 11 10 9 8 8 8 8 9 10 10 11 11 11 11 11 12 12 12 12 12 12 13 13 13 13 13 13 13 13 13 13 13 13 14 14 13 14 14 14
16 16 11 10 11 11 10 10 10 10 9 9 9 8 8 8 8 9 9 10 10 11 11 11 11 11 11 12 12 12 12 12 12 12 13 13 13 13 13 13 13 13 13 13 13 13 13 13 13
16 12 10 10 11 10 9 10 10 9 9 9 8 8 7 8 8 9 9 10 10 10 11 11 11 11 11 11 11 11 12 12 12 12 12 12 12 12 12 13 13 13 13 13 13 13 13 13 13
13 9 10 10 10 10 10 9 9 8 8 8 8 7 7 8 8 8 9 9 10 10 10 10 10 11 11 11 11 11 11 11 11 12 12 12 12 12 12 12 12 12 12 12 12 12 13 13 13
14 9 10 9 10 10 9 9 8 8 7 8 8 7 6 7 7 8 8 9 9 9 10 10 10 10 10 10 10 10 11 11 11 11 11 11 11 11 12 12 12 12 12 12 12 12 12 12 12
13 9 9 10 10 9 9 8 8 8 7 7 7 6 6 7 7 8 8 8 9 9 9 9 9 9 10 10 10 10 10 10 10 11 11 11 11 11 11 11 11 11 11 11 11 11 12 12 12
11 8 9 9 9 8 8 8 7 7 6 6 6 6 6 7 7 7 8 8 8 8 8 8 9 9 9 9 9 9 9 10 10 10 10 10 10 10 10 11 11 11 11 11 11 11 11 11 12
9 8 8 8 8 8 7 7 7 7 5 5 5 6 6 7 7 7 7 7 7 7 8 8 8 8 8 8 9 9 9 9 9 9 9 10 10 10 10 10 10 10 11 10 10 10 11 11 11
7 7 8 8 8 8 7 6 6 5 5 6 6 6 6 6 6 6 6 6 6 7 7 7 7 7 8 8 8 8 8 8 9 9 9 9 9 9 9 10 10 10 10 10 10 10 10 10 10
7 7 7 7 7 7 6 5 5 4 5 5 5 5 5 6 6 6 6 6 6 6 6 6 7 7 7 7 7 7 7 8 8 8 8 8 8 9 9 9 9 9 9 9 9 10 10 10 10
7 7 7 7 7 6 5 4 4 4 5 5 5 5 4 5 5 5 5 5 5 5 6 6 6 6 6 7 7 7 7 7 7 7 7 7 8 8 8 8 8 9 9 9 9 9 9 9 9
7 6 6 6 6 6 6 5 3 4 4 4 4 4 4 4 4 4 4 5 5 5 5 5 5 5 6 6 6 6 6 6 6 7 7 7 7 7 7 7 8 8 8 8 8 8 8 9 9
7 7 7 6 6 6 6 6 4 4 3 3 3 3 3 3 3 3 4 4 4 4 4 5 5 5 5 5 5 5 5 6 6 6 6 6 6 6 7 7 7 7 7 7 8 8 8 8 8
6 7 7 6 5 5 5 4 3 3 3 2 2 2 2 3 3 3 3 3 4 4 4 4 4 4 5 5 4 5 5 5 5 5 5 5 5 6 6 6 6 6 6 7 7 7 7 7 7
7 7 6 6 5 4 4 3 2 3 2 1 1 2 2 2 2 2 3 3 3 3 3 3 4 4 4 4 4 4 4 4 4 4 4 4 5 5 5 5 5 5 6 6 6 6 6 6 6
7 6 6 5 5 4 3 3 2 2 1 1 1 1 1 1 2 2 2 2 2 2 3 3 3 3 3 3 3 4 4 4 4 4 4 4 4 4 4 4 4 5 5 5 5 5 5 5 6
6 6 5 5 4 4 3 2 2 1 1 0 0 1 1 1 1 1 2 2 2 2 2 2 2 2 2 2 2 2 3 3 3 3 3 3 3 3 3 3 4 4 4 4 4 4 4 4 4
6 5 5 5 4 3 3 3 2 1 1 0 0 1 1 1 1 1 1 1 1 1 1 1 1 1 1 2 2 2 2 2 2 2 2 2 2 2 2 2 3 3 3 3 3 4 4 4 4
5 5 5 4 4 3 3 3 3 1 -0 -0 -0 0 0 1 1 1 1 1 1 1 1 1 1 1 1 1 1 1 1 1 1 1 1 1 1 1 1 2 2 2 2 2 2 3 3 3 3
4 4 3 3 3 2 2 2 2 1 1 -0 -0 -0 1 1 1 1 1 1 0 0 0 0 0 0 0 0 0 0 0 0 0 0 0 1 1 1 1 1 1 1 1 1 1 2 2 2 2
3 3 3 2 2 3 2 2 2 0 0 0 -0 0 1 1 0 0 0 0 -0 -0 -0 -0 -1 -0 -0 -1 -1 -1 -1 -1 -0 -0 -0 -0 -0 -0 -0 -0 -0 0 0 0 1 1 1 1 1
3 3 4 4 3 3 2 2 2 0 -0 -0 -1 -0 0 0 0 -0 -0 -0 -0 -1 -1 -1 -1 -1 -1 -1 -1 -1 -1 -1 -1 -1 -1 -1 -1 -1 -1 -1 -1 -1 -1 -0 -0 0 0 1 1
3 4 4 4 3 2 1 1 1 -0 -0 -0 -0 -1 -0 -0 -0 -0 -0 -1 -1 -1 -1 -1 -2 -2 -2 -2 -2 -2 -2 -2 -2 -2 -2 -2 -2 -2 -2 -2 -2 -2 -1 -1 -1 -1 -0 -0 0
3 2 2 1 0 0 1 -0 -1 -1 -1 -1 -1 -1 -1 -1 -1 -1 -1 -1 -1 -1 -2 -2 -2 -2 -2 -2 -2 -3 -3 -3 -3 -3 -3 -3 -2 -2 -2 -2 -2 -2 -2 -2 -1 -1 -1 -1 -0
2 1 0 1 2 2 1 0 1 -0 -1 -1 -2 -2 -1 -1 -1 -1 -1 -2 -2 -2 -2 -2 -3 -3 -3 -3 -3 -3 -3 -3 -3 -3 -3 -3 -3 -3 -3 -3 -3 -3 -2 -2 -2 -2 -2 -1 -1
1 1 1 -0 0 1 1 2 0 -1 -1 -2 -2 -1 -1 -1 -1 -2 -2 -2 -2 -2 -3 -3 -3 -3 -3 -4 -4 -4 -4 -4 -4 -4 -4 -4 -4 -4 -3 -3 -3 -3 -3 -3 -3 -3 -2 -2 -2
1 1 -0 1 0 -1 -1 1 -1 -2 -2 -2 -2 -2 -2 -2 -2 -2 -3 -3 -3 -3 -3 -3 -4 -4 -4 -4 -4 -4 -4 -4 -4 -4 -4 -4 -4 -4 -4 -4 -4 -4 -3 -3 -3 -3 -3 -3 -3
Wind_Speed
9 5 3 4 6 6 1 1 0 1 1 2 3 4 6 4 2 2 3 7 9 9 9 7 7 9 10 11 10 10 11 11 11 11 10 10 9 9 10 10 11 11 11 11 11 11 11 12 12
4 3 5 6 5 2 2 1 1 0 1 3 5 5 5 4 3 2 4 8 9 9 9 7 8 9 10 11 11 11 11 11 11 11 10 10 9 9 9 10 10 11 11 11 11 11 11 11 11
2 5 5 5 4 4 3 1 2 2 3 3 4 4 3 2 3 3 5 7 8 9 10 9 8 9 10 10 10 11 11 12 12 12 12 11 9 9 10 10 10 11 11 11 11 11 11 10 10
4 5 6 5 2 1 1 0 1 2 4 5 4 4 3 4 3 3 5 7 7 9 10 10 11 10 10 10 10 11 11 12 12 12 12 12 11 10 10 10 10 10 10 10 10 10 10 10 9
4 5 5 3 1 0 1 1 1 3 2 3 3 3 2 3 6 5 6 7 7 9 11 11 12 12 12 11 11 11 11 11 12 12 12 12 12 10 9 9 10 10 10 10 9 9 9 9 9
5 5 4 2 1 0 1 2 2 3 2 2 3 3 1 4 7 7 7 8 9 9 12 12 13 13 12 13 11 11 11 11 12 12 11 12 12 11 10 10 9 9 9 9 9 9 9 8 8
5 5 4 4 3 0 1 2 3 3 3 2 1 3 0 4 6 6 7 8 10 11 12 13 13 13 13 12 13 12 11 11 11 12 12 12 12 11 10 10 10 9 8 8 8 8 8 8 8
5 5 4 3 4 2 1 2 2 3 2 2 2 3 1 2 4 5 7 7 8 11 12 13 13 13 13 12 12 13 12 11 12 12 12 12 11 11 10 10 9 9 8 8 8 8 8 8 8
4 5 3 4 5 3 1 2 2 3 4 3 3 2 1 3 4 6 7 8 9 10 10 12 13 13 13 11 12 12 12 12 12 12 12 12 11 10 9 10 9 8 8 7 7 7 8 8 7
5 4 3 1 2 3 2 2 2 3 3 2 3 4 4 4 5 6 6 7 7 8 8 10 11 12 12 11 11 11 11 12 11 11 11 10 10 9 8 9 8 8 7 7 7 7 7 7 7
4 4 2 2 2 3 3 2 2 4 1 2 2 2 3 4 5 5 5 5 5 5 7 8 10 11 11 10 10 10 10 11 11 11 11 10 9 9 8 8 8 7 7 7 7 7 6 6 5
4 3 2 1 2 3 2 2 2 2 1 2 4 5 4 4 3 3 4 4 5 6 6 7 9 10 10 10 9 9 9 9 10 10 10 9 7 7 7 7 7 7 6 6 5 5 5 5 5
3 2 3 4 5 4 4 3 2 0 1 4 6 6 4 4 3 4 4 4 5 6 7 6 8 9 9 9 8 8 8 8 9 9 9 8 6 6 6 5 6 7 6 6 5 4 4 4 4
3 4 3 3 2 2 3 1 1 1 3 4 5 4 3 3 3 4 6 6 6 6 7 6 7 8 9 8 7 7 7 8 8 9 9 8 6 6 5 5 5 6 6 5 4 3 2 3 3
4 4 3 2 2 1 3 2 1 2 4 4 3 3 4 3 4 4 4 4 5 5 6 5 6 8 8 8 7 7 7 7 7 8 9 8 7 6 6 5 4 5 6 6 4 3 3 2 2
4 4 2 2 1 1 1 3 1 3 5 3 2 2 2 2 3 3 3 4 4 4 6 6 6 7 8 8 8 7 7 7 7 8 9 8 8 7 6 4 4 6 6 5 3 2 1 1 1
4 1 2 3 1 1 2 4 2 2 4 2 1 1 1 1 3 3 3 3 4 4 5 7 6 6 7 8 8 7 7 8 8 8 9 9 8 8 6 5 5 6 5 4 4 2 1 1 2
2 2 2 3 1 1 2 5 4 3 4 4 2 1 1 0 1 2 2 3 4 4 5 6 6 7 6 6 6 6 6 7 8 8 9 9 8 8 7 5 6 5 4 3 3 3 2 1 1
3 3 4 4 1 1 5 7 7 5 4 4 3 2 2 2 1 1 2 3 4 5 5 6 6 6 6 4 4 4 4 5 6 8 10 10 9 9 7 6 5 5 3 3 3 2 2 2 2
2 2 3 3 2 1 4 8 6 5 5 5 5 4 4 2 1 1 1 2 3 4 4 5 6 5 5 4 3 2 3 3 4 7 9 10 10 9 7 7 5 5 3 3 3 2 1 1 1
1 3 4 3 4 1 3 6 3 1 1 2 3 3 3 3 3 2 1 1 2 3 3 4 5 5 5 6 4 3 3 3 4 6 6 10 10 9 9 8 6 5 3 3 3 2 1 2 2
3 2 2 1 2 4 1 5 5 2 2 2 3 3 4 3 3 2 2 1 1 2 2 3 4 4 4 5 4 4 3 3 4 5 5 8 10 9 9 9 7 6 4 3 4 3 2 2 2
2 1 0 1 2 2 1 4 7 1 3 4 4 3 4 3 3 3 2 2 2 2 2 2 3 4 4 4 4 3 3 3 4 5 6 7 8 8 9 8 8 6 5 5 4 4 3 3 3
1 2 3 3 3 3 4 5 7 4 5 4 3 3 3 2 2 2 1 1 1 2 2 2 3 4 3 4 4 3 4 5 5 6 6 6 5 6 8 8 8 7 6 6 6 5 4 4 4
3 3 4 4 2 5 2 4 8 4 3 4 4 3 2 2 1 2 2 1 1 2 3 3 3 4 4 4 4 4 4 4 4 5 5 6 6 6 7 8 7 7 7 7 6 5 5 5 5
1 3 4 4 5 5 2 7 6 2 3 2 2 2 1 2 2 3 3 2 1 2 3 3 3 4 3 3 4 4 4 3 4 5 5 5 5 6 8 8 8 8 8 8 7 6 6 5 5
3 3 3 4 1 4 7 7 6 2 2 1 1 1 2 2 2 2 2 2 2 2 3 3 4 4 4 4 4 4 4 4 5 6 5 5 6 7 9 8 8 8 8 8 7 5 6 6 6
1 6 4 3 2 6 7 6 5 5 5 3 3 3 3 2 2 1 2 2 2 2 2 3 3 3 3 4 4 5 5 5 5 5 6 6 7 8 8 8 8 8 8 8 6 6 6 6 6
3 2 3 3 3 4 6 7 4 6 5 5 5 4 4 3 2 2 2 2 2 2 3 3 3 3 4 4 4 5 5 6 6 6 6 7 7 8 8 8 8 8 8 8 7 7 7 7 7
3 5 6 4 5 4 4 8 2 3 3 3 4 3 2 2 2 2 2 2 3 3 4 4 4 3 4 4 5 5 6 6 6 7 7 7 7 8 8 8 8 8 8 8 8 8 8 8 8
Wind_Direction
348 16 63 56 57 55 120 265 181 39 42 40 49 79 105 96 100 127 348 1 357 353 351 357 19 32 34 37 41 43 42 44 47 48 48 50 56 62 66 66 66 66 65 65 66 68 69 71 70
348 33 53 59 88 98 263 259 141 142 123 88 53 58 71 62 34 20 348 344 356 3 3 2 30 37 38 39 41 42 42 44 45 47 48 47 49 56 62 64 64 64 63 64 66 68 69 70 69
40 50 76 75 106 164 190 180 149 67 58 64 64 45 62 42 7 351 335 343 5 13 15 16 33 40 41 41 41 42 40 42 43 46 46 45 47 51 57 59 62 64 64 63 64 66 66 66 67
68 49 58 75 123 211 195 75 131 105 50 44 86 68 57 30 353 345 356 8 23 19 22 24 33 36 40 42 41 41 40 41 41 43 43 42 44 47 50 56 64 63 65 64 63 66 64 61 63
57 75 68 64 152 294 21 8 97 86 60 35 76 95 68 18 19 25 25 26 32 21 23 30 35 35 36 38 40 41 42 41 41 41 42 42 41 42 46 53 62 63 64 65 63 63 61 59 58
55 68 93 159 195 348 22 12 85 74 70 47 75 102 111 26 25 22 27 32 30 27 25 29 31 32 34 36 34 39 41 42 41 40 40 40 40 40 45 49 55 60 61 62 64 63 59 56 57
98 94 134 156 157 205 34 46 90 100 84 32 67 105 34 14 14 23 30 35 33 32 31 29 27 27 28 30 33 34 38 40 39 37 37 38 37 39 42 42 43 51 55 56 59 59 59 56 56
110 102 104 147 162 199 23 63 72 84 106 39 67 113 242 318 16 36 38 41 39 35 31 28 27 26 25 26 28 32 33 37 36 34 35 36 34 34 37 35 35 39 46 49 52 55 55 54 54
79 80 150 191 180 183 89 86 41 60 87 56 48 62 69 74 58 52 41 34 32 30 25 25 25 24 23 26 26 28 30 31 33 30 30 32 31 30 32 28 30 32 37 41 46 50 53 49 47
66 119 182 218 169 145 94 94 114 86 64 54 47 45 66 69 67 61 46 33 28 21 17 21 23 22 23 26 26 26 27 27 29 29 27 28 27 28 29 28 29 28 29 33 36 42 49 45 38
76 129 139 53 80 112 105 77 78 124 127 205 168 111 74 66 60 58 47 34 23 17 18 16 20 22 25 24 26 25 24 24 23 24 25 25 28 28 26 27 23 22 23 24 29 32 35 38 32
93 53 87 85 68 81 104 104 65 79 173 111 124 119 98 78 62 54 44 29 20 19 18 14 19 23 24 26 27 27 24 22 19 15 22 27 24 23 20 22 16 18 17 15 23 25 22 26 27
89 93 65 77 74 81 83 73 110 348 116 91 92 91 90 79 57 43 38 31 27 20 9 11 18 22 21 26 26 24 21 20 14 15 17 22 22 15 13 13 15 12 12 10 8 15 18 17 15
106 95 79 50 66 68 101 62 80 240 115 98 93 92 78 63 48 38 30 22 17 13 2 6 17 19 22 27 23 20 17 16 15 15 12 15 19 16 11 9 8 5 2 357 355 354 10 15 13
102 80 45 32 63 106 104 356 219 181 121 103 94 93 76 56 46 40 27 20 13 9 3 6 19 19 20 21 19 18 15 18 14 9 7 11 13 12 13 8 3 355 353 354 354 3 19 24 15
64 62 12 334 48 34 123 268 226 140 129 127 113 107 90 56 42 29 26 24 17 16 12 6 17 18 17 17 13 13 14 17 12 7 4 7 8 8 11 7 358 350 353 359 356 4 6 351 349
39 48 266 301 22 61 145 243 221 154 141 160 175 163 122 49 22 15 19 26 26 22 19 11 11 16 13 13 11 9 14 15 11 9 6 4 3 6 5 358 352 353 358 359 354 342 341 323 333
237 235 258 266 302 110 223 251 250 203 177 193 201 200 182 161 313 351 16 27 28 21 20 15 13 14 11 12 12 11 13 11 8 6 4 3 2 3 5 357 355 358 360 351 351 341 343 317 321
155 186 252 268 307 272 245 260 259 223 199 210 212 214 227 243 285 4 21 26 29 21 18 17 11 9 11 10 5 358 354 352 0 3 2 3 1 358 1 358 355 359 351 340 340 343 351 354 0
135 209 261 292 360 296 285 277 266 222 205 204 203 214 225 240 299 340 5 21 23 13 7 13 8 4 8 2 351 335 323 336 351 357 1 3 360 354 352 357 352 350 348 345 342 349 338 315 338
232 207 234 268 334 337 317 294 253 213 192 203 209 216 220 218 230 258 293 331 5 2 357 358 358 357 3 3 3 2 5 356 358 357 356 354 354 354 349 346 348 344 344 318 318 315 300 273 265
260 228 212 234 330 296 353 290 264 231 249 239 241 232 231 230 230 237 250 300 315 314 340 353 353 354 3 11 13 15 13 356 336 330 334 342 347 349 349 346 345 342 335 319 307 322 293 272 265
227 333 214 194 186 296 264 235 280 223 245 248 241 237 237 230 223 231 244 266 294 321 340 338 345 351 5 12 11 8 359 340 328 332 337 342 346 346 345 342 342 341 334 321 312 307 296 277 264
122 48 64 64 85 276 224 200 272 228 227 238 236 243 243 236 233 244 259 284 316 339 355 351 350 347 359 6 3 359 348 341 340 340 337 337 334 337 341 336 337 333 329 321 312 302 290 280 273
62 71 9 346 336 258 196 222 252 244 230 219 227 242 241 214 215 239 257 288 312 341 346 345 347 342 347 353 350 341 336 334 328 323 325 328 327 326 329 331 328 325 321 315 315 308 291 279 275
171 138 162 233 256 285 286 244 256 255 274 254 233 223 210 213 229 244 246 254 294 316 326 334 334 329 334 340 333 332 333 325 320 316 312 313 312 312 317 320 320 317 315 316 314 306 297 288 273
146 171 157 146 244 275 268 278 294 246 294 286 241 212 229 237 244 259 295 310 310 301 309 316 319 318 324 327 324 326 330 324 315 314 309 308 311 314 317 318 316 316 314 313 309 299 294 292 282
130 147 113 144 236 271 282 269 257 248 243 236 229 234 247 249 276 312 323 315 294 286 310 328 319 308 312 320 322 326 322 318 315 315 311 310 312 313 314 314 314 313 311 307 300 294 293 289 289
139 143 150 157 184 209 275 272 228 218 218 218 231 235 235 241 263 291 309 312 321 336 338 337 328 325 322 320 317 317 314 315 315 312 309 309 310 312 313 311 310 307 305 303 295 291 288 285 285
191 187 160 185 234 209 241 272 276 210 222 217 238 246 249 264 286 304 302 320 336 337 335 333 320 312 309 308 310 310 310 314 314 311 309 312 308 309 311 310 307 304 303 301 295 289 287 280 279
Height
1507 1508 1509 1511 1516 1532 1536 1533 1531 1531 1532 1532 1532 1533 1535 1538 1540 1546 1543 1540 1540 1540 1540 1540 1540 1540 1540 1540 1540 1540 1540 1540 1540 1540 1540 1540 1540 1540 1540 1540 1540 1540 1540 1540 1540 1540 1541 1541 1541
1507 1509 1511 1512 1525 1540 1538 1532 1532 1532 1532 1532 1533 1534 1535 1538 1540 1541 1540 1539 1540 1540 1540 1540 1540 1541 1541 1541 1540 1540 1541 1540 1540 1540 1540 1540 1540 1540 1540 1540 1540 1540 1540 1540 1541 1541 1541 1542 1542
1508 1509 1511 1517 1532 1537 1534 1531 1532 1532 1532 1532 1534 1536 1538 1540 1540 1540 1540 1540 1540 1540 1540 1540 1540 1540 1541 1541 1541 1541 1541 1541 1541 1540 1540 1540 1540 1540 1540 1540 1540 1540 1540 1541 1541 1541 1541 1542 1542
1509 1511 1514 1525 1533 1534 1532 1532 1531 1532 1533 1533 1535 1538 1540 1542 1542 1541 1540 1540 1540 1540 1540 1540 1540 1540 1540 1540 1540 1540 1541 1540 1540 1540 1540 1540 1540 1540 1540 1540 1540 1540 1540 1540 1541 1541 1541 1542 1542
1509 1510 1521 1533 1533 1533 1532 1532 1532 1532 1534 1535 1536 1538 1540 1542 1541 1541 1540 1540 1539 1539 1539 1540 1540 1540 1540 1540 1540 1540 1540 1540 1540 1540 1540 1540 1539 1540 1540 1540 1540 1540 1540 1540 1541 1541 1541 1542 1542
1510 1513 1530 1536 1534 1533 1533 1532 1532 1534 1535 1536 1537 1538 1540 1542 1541 1540 1540 1540 1540 1539 1539 1539 1539 1540 1540 1540 1540 1540 1540 1539 1539 1539 1539 1539 1539 1539 1539 1539 1539 1539 1539 1540 1540 1541 1541 1541 1542
1512 1520 1530 1533 1535 1534 1533 1533 1534 1535 1536 1537 1538 1539 1540 1541 1541 1540 1540 1540 1540 1539 1539 1539 1539 1539 1539 1539 1539 1539 1539 1539 1538 1538 1538 1538 1538 1538 1538 1538 1538 1539 1539 1539 1540 1540 1540 1541 1541
1512 1520 1530 1533 1533 1533 1533 1533 1535 1535 1537 1538 1538 1539 1540 1541 1540 1540 1540 1540 1540 1539 1539 1538 1538 1538 1538 1538 1538 1538 1538 1538 1538 1537 1537 1537 1537 1537 1537 1538 1537 1538 1538 1538 1539 1539 1539 1540 1540
1513 1524 1532 1532 1532 1532 1533 1534 1535 1536 1537 1538 1539 1540 1540 1540 1540 1540 1539 1539 1539 1538 1538 1538 1538 1538 1537 1537 1537 1537 1537 1537 1537 1536 1536 1536 1536 1536 1536 1537 1536 1536 1537 1537 1537 1538 1538 1539 1539
1516 1528 1530 1530 1530 1531 1533 1534 1535 1536 1537 1538 1539 1539 1539 1539 1539 1539 1538 1538 1538 1538 1538 1537 1537 1537 1537 1536 1536 1536 1536 1535 1535 1535 1535 1535 1535 1535 1535 1535 1535 1535 1535 1536 1536 1536 1537 1537 1538
1520 1528 1529 1530 1530 1531 1532 1534 1535 1536 1538 1539 1538 1538 1538 1538 1538 1538 1538 1538 1538 1538 1538 1537 1537 1536 1536 1535 1535 1535 1534 1534 1534 1534 1533 1533 1533 1533 1533 1533 1533 1533 1533 1534 1534 1535 1535 1536 1536
1524 1528 1529 1530 1530 1531 1533 1534 1536 1537 1538 1538 1538 1538 1538 1538 1538 1538 1537 1538 1538 1538 1537 1537 1537 1536 1535 1535 1534 1534 1533 1532 1532 1532 1532 1532 1531 1531 1531 1531 1531 1531 1531 1532 1532 1532 1533 1534 1534
1526 1529 1530 1531 1531 1532 1533 1535 1536 1538 1538 1538 1537 1537 1537 1537 1538 1538 1538 1538 1537 1537 1537 1536 1536 1535 1534 1534 1533 1532 1532 1531 1530 1530 1530 1530 1530 1529 1530 1529 1529 1529 1529 1530 1530 1530 1530 1531 1532
1528 1529 1531 1531 1531 1532 1534 1536 1537 1536 1537 1537 1537 1537 1537 1537 1537 1537 1537 1537 1536 1536 1536 1536 1535 1534 1534 1533 1532 1531 1531 1530 1529 1528 1528 1528 1528 1527 1527 1527 1527 1527 1527 1527 1528 1528 1528 1528 1529
1528 1530 1532 1532 1532 1533 1534 1536 1537 1536 1536 1536 1536 1536 1537 1537 1537 1536 1536 1536 1536 1536 1535 1535 1534 1533 1533 1532 1531 1530 1529 1529 1528 1527 1526 1526 1525 1525 1525 1525 1525 1525 1525 1525 1525 1525 1525 1525 1526
1529 1532 1534 1534 1533 1533 1537 1537 1536 1536 1535 1535 1536 1536 1536 1536 1536 1536 1536 1535 1535 1535 1534 1534 1533 1533 1532 1531 1530 1529 1528 1527 1526 1525 1524 1524 1523 1523 1522 1522 1522 1522 1522 1522 1521 1522 1522 1522 1522
1534 1536 1535 1535 1534 1534 1536 1537 1536 1535 1535 1535 1535 1535 1535 1535 1535 1535 1535 1535 1534 1534 1533 1533 1532 1531 1530 1530 1529 1528 1527 1525 1524 1523 1522 1521 1521 1520 1520 1519 1519 1519 1518 1518 1518 1518 1519 1519 1519
1535 1536 1536 1536 1535 1535 1537 1536 1534 1534 1534 1533 1533 1533 1534 1534 1534 1534 1534 1534 1533 1533 1533 1532 1531 1530 1529 1528 1527 1526 1525 1524 1522 1521 1520 1519 1518 1518 1517 1516 1516 1515 1515 1515 1515 1515 1516 1516 1516
1533 1535 1537 1536 1535 1535 1535 1534 1532 1532 1532 1532 1532 1532 1532 1532 1533 1534 1533 1533 1532 1532 1531 1530 1529 1528 1527 1526 1525 1523 1522 1521 1520 1519 1518 1517 1516 1515 1514 1514 1513 1513 1512 1512 1511 1511 1511 1512 1513
1533 1535 1537 1536 1535 1535 1535 1532 1529 1528 1529 1529 1529 1530 1530 1531 1531 1532 1532 1531 1531 1530 1529 1529 1527 1527 1525 1524 1523 1522 1520 1519 1518 1517 1516 1514 1513 1512 1511 1511 1510 1509 1509 1509 1509 1508 1508 1509 1510
1533 1535 1536 1536 1537 1536 1537 1531 1528 1527 1528 1528 1528 1528 1528 1528 1529 1529 1530 1530 1529 1528 1528 1527 1526 1525 1524 1523 1522 1520 1518 1517 1515 1514 1513 1511 1511 1509 1508 1508 1507 1506 1506 1505 1505 1505 1505 1505 1506
1533 1533 1534 1536 1539 1541 1539 1536 1526 1527 1527 1526 1526 1525 1525 1526 1527 1528 1528 1528 1528 1527 1527 1526 1525 1523 1522 1521 1519 1517 1515 1514 1513 1511 1510 1509 1507 1506 1505 1504 1504 1503 1503 1502 1502 1502 1502 1502 1502
1534 1534 1535 1537 1540 1543 1542 1541 1528 1527 1526 1525 1524 1523 1524 1524 1525 1526 1526 1526 1526 1526 1525 1524 1523 1522 1520 1518 1517 1515 1514 1512 1511 1509 1507 1506 1505 1504 1502 1501 1500 1499 1499 1499 1499 1498 1498 1498 1499
1534 1535 1537 1541 1543 1542 1538 1542 1528 1526 1523 1522 1522 1522 1522 1523 1524 1525 1525 1525 1525 1524 1524 1522 1521 1520 1518 1517 1515 1513 1511 1510 1508 1506 1504 1503 1501 1501 1499 1498 1497 1496 1495 1495 1494 1494 1494 1494 1494
1534 1538 1541 1540 1544 1537 1537 1536 1527 1521 1520 1519 1519 1520 1520 1521 1522 1523 1523 1523 1522 1522 1521 1520 1519 1517 1516 1514 1513 1511 1509 1507 1505 1503 1502 1500 1498 1497 1495 1494 1493 1492 1491 1491 1490 1490 1489 1490 1490
1536 1536 1542 1543 1544 1540 1538 1535 1523 1519 1517 1517 1517 1518 1519 1520 1520 1521 1521 1521 1520 1520 1519 1518 1516 1515 1513 1512 1511 1509 1507 1505 1503 1501 1499 1497 1495 1493 1492 1491 1489 1488 1487 1486 1486 1485 1485 1484 1484
1535 1539 1540 1548 1551 1552 1538 1532 1523 1518 1516 1516 1516 1517 1517 1518 1519 1519 1519 1518 1518 1518 1517 1515 1513 1512 1511 1509 1508 1506 1504 1502 1500 1498 1496 1494 1492 1490 1488 1487 1485 1484 1483 1482 1481 1480 1480 1479 1479
1534 1538 1545 1546 1545 1542 1533 1531 1523 1517 1516 1516 1516 1516 1516 1517 1517 1517 1517 1517 1516 1515 1514 1512 1511 1509 1508 1507 1505 1503 1501 1499 1497 1495 1493 1491 1489 1487 1485 1483 1481 1480 1478 1477 1476 1475 1474 1473 1473
1536 1539 1540 1545 1545 1545 1541 1525 1515 1513 1513 1513 1514 1514 1515 1515 1515 1515 1515 1514 1513 1512 1511 1510 1508 1507 1505 1503 1502 1500 1498 1496 1493 1491 1489 1487 1485 1483 1480 1478 1476 1475 1473 1472 1471 1470 1469 1468 1467
1533 1535 1539 1541 1543 1548 1545 1526 1512 1511 1511 1512 1512 1513 1513 1513 1513 1512 1512 1512 1510 1509 1508 1507 1505 1504 1502 1500 1498 1496 1494 1492 1489 1487 1485 1483 1480 1478 1476 1474 1472 1470 1469 1467 1466 1464 1463 1462 1461